SCOUT B R/B, 1502

Orbit data source: Space-Track

SCOUT B R/B, 1502 is space debris in LEO originally from a launch on Tue, 10 Aug 1965 UTC via an SCOUT B launch vehicle from the Wallops Island (WLPIS). Debris objects in space refer to the collection of defunct objects orbiting the Earth. Examples of debris include non-operational satellites, rocket bodies, and fragments generated from explosions, collisions, or faulty payload assembly.

Loading next visibility...
Identifier
1502, 1965-063B
Orbit
LEO
Country
Flag of USUS
Related business
Manufacturer
NASA LaRC
Mission
Spacecraft
Bus & Motor
ESEC, Unknown motor
Mass
47 kg wet, 4 kg dry
Launch date (UTC)
1965-08-10 (60 years ago)
Launch vehicle
SCOUT B
Launch site
Wallops Island (WLPIS)
Object type
Payload
Rocket body
Debris
Shape & HBR
Cyl, 0.8 m
Radar Cross Section
0.687 m², Medium (>0.1 m² and < 1m²)

Expand to show TLE details & history
Last TLE update: 19 hours ago

TLE from 19 hours ago
0 SCOUT B R/B
1 01502U 65063B   25260.15247333 -.00000033  00000-0 -11723-4 0  9997
2 01502  69.2310 306.7621 0782292  28.4427   5.4615 11.78589897586220
Epoch: 2025-09-17T03:39Z
TLE epoch observation values (Epoch: 2025-09-17T03:39:33.695Z)
Latitude
32.3682°
Longitude
-90.62519°
Altitude
1,146.798 km
Speed
7.561 km/s
True Right ascension
21h 22m 23s
True Declination
32° 13' 15"
Sunlit
Object was in full shadow at epoch
Visualization orbit readout
Latitude
Unknown
Longitude
Unknown
Altitude
Unknown
Speed
Unknown
Apparent Right ascension
Unknown
Apparent Declination
Unknown
Sunlit
N/A
Visualization observer readout
Local Sidereal Time
14:58:35
Azimuth
Unknown
Elevation
Unknown
Doppler factor
Unknown
Orbital elements
Apogee altitude
2,414.403 km
Perigee altitude
1,138.546 km
Semi-major axis
8,154.612 km
Eccentricity
0.07823
Inclination
69.231°
RAAN
306.7621°
Arg. of periapsis
28.4427°
True anomaly
6.40622°
Mean anomaly
5.4615°
Eccentric anomaly
5.92411°
Mean motion
2.94739 °/min
Orbital period
122.14 mins
BSTAR
-0.000011723
Loading maneuver chart data...
Computing Atmospheric mass density...
Loading historical data...
Loading historical data...
Loading historical data...
Loading historical data...
Loading historical data...
Loading historical data...
Loading historical data...

Documentation

Showing up to 5 results
|